GEFSCGP_500_meanwind_156.txt.gz
Wind_Speed
14 13 12 10 9 7 5 4 3 1 4 8 12 13 14 15 17 18 19 19 18 15 14 14 14 14 14 14 14 12 11 8 8 7 7 6 3 3 2 2 2 2 3 4
16 14 12 11 10 8 8 6 4 3 4 7 10 12 12 13 15 17 18 18 20 18 15 14 14 14 13 13 13 11 10 7 7 7 7 6 5 3 2 2 3 3 3 5
17 15 14 13 11 10 10 9 8 7 7 9 11 11 11 11 14 16 17 17 18 19 16 14 14 14 13 13 12 11 9 7 6 6 6 6 6 5 4 3 4 4 4 5
19 17 16 14 13 12 12 12 11 11 10 11 11 11 10 11 12 14 16 17 18 18 16 15 14 14 12 12 11 10 9 8 6 5 6 6 6 5 5 4 4 4 4 5
21 20 18 16 14 13 14 14 12 12 12 12 12 12 11 12 11 13 16 17 18 18 16 15 13 12 12 11 10 10 10 8 6 6 6 6 5 5 5 5 5 5 5 6
22 21 20 17 15 14 15 15 14 12 11 11 11 12 11 11 12 13 15 16 17 17 16 15 13 11 11 11 10 10 9 9 7 6 6 6 5 5 5 5 5 6 6 7
23 22 20 19 17 16 17 16 15 13 11 9 9 11 11 10 11 13 14 16 16 15 15 15 13 12 12 11 10 9 9 8 8 6 6 6 6 5 5 6 6 7 7 7
25 22 20 18 16 15 16 17 15 14 12 10 10 11 11 10 10 12 13 14 15 15 14 14 13 12 12 11 11 9 8 8 7 6 6 6 6 6 6 7 7 7 7 8
26 24 22 20 17 16 16 17 16 15 14 13 11 11 10 12 11 12 12 13 15 15 14 13 13 12 11 11 11 10 9 8 7 6 6 6 6 7 7 7 7 7 8 8
26 25 24 22 21 18 16 16 18 17 16 15 14 13 11 10 12 13 13 13 15 15 14 14 13 13 12 11 10 10 9 8 7 7 6 6 7 8 8 8 8 8 8 8
28 27 25 24 22 19 17 16 18 19 18 17 17 16 13 12 13 12 12 12 15 15 14 14 14 13 12 11 10 10 9 9 8 7 7 7 8 8 9 9 9 8 8 8
28 28 28 26 24 21 19 17 18 20 20 19 20 19 16 15 14 13 13 13 14 13 13 13 13 12 12 11 10 9 9 9 9 9 8 8 9 9 10 10 9 9 9 8
29 30 30 29 27 24 22 19 18 19 20 22 22 20 18 17 16 16 15 14 13 13 12 12 12 11 11 11 11 10 10 10 9 9 9 9 10 11 11 10 9 9 9 9
30 31 32 31 28 27 25 21 19 20 20 21 21 21 20 18 18 17 15 15 15 14 13 13 12 12 11 11 11 11 11 10 10 9 9 10 11 11 11 11 10 10 10 10
33 33 32 31 30 30 29 26 23 22 21 22 20 20 21 19 19 18 17 17 17 16 15 14 13 12 12 12 12 12 11 11 11 10 10 10 11 11 11 10 10 11 11 11
37 36 35 33 32 32 32 29 26 24 22 22 21 21 21 21 22 21 20 20 19 18 16 15 15 14 13 13 13 12 12 11 11 11 11 11 11 11 11 11 12 12 12 12
39 38 37 37 34 33 33 30 28 26 23 23 23 23 23 23 24 24 23 22 21 20 18 17 17 16 15 14 14 14 14 13 13 13 13 13 13 13 13 13 13 13 13 13
40 38 38 38 37 38 34 32 32 29 27 26 26 24 24 25 25 25 26 25 24 22 21 20 19 18 17 16 15 16 16 15 14 14 14 15 15 15 15 15 15 15 15 15
43 41 39 39 39 38 36 35 36 35 32 31 29 28 26 25 26 27 27 27 26 24 22 22 21 19 19 18 17 17 17 16 16 16 15 16 16 16 17 17 17 16 16 16
45 44 42 40 40 39 36 36 38 39 38 35 33 32 30 29 29 28 28 27 26 26 25 24 23 21 21 20 19 18 18 19 19 18 18 18 18 18 19 19 19 18 18 18
46 45 43 42 41 40 38 37 38 40 41 39 38 36 34 33 33 31 31 29 29 28 27 25 24 23 22 21 21 20 20 21 21 21 21 21 21 21 21 21 20 20 20 20
46 46 45 44 43 42 38 38 39 41 41 41 40 39 38 36 36 36 34 33 32 30 29 27 25 25 25 24 23 22 22 23 23 23 23 23 23 23 23 23 22 22 22 22
46 46 45 44 43 41 39 40 41 42 42 41 41 40 38 37 37 36 36 35 34 33 30 29 27 27 28 27 26 25 25 26 26 26 26 26 25 25 25 25 25 25 25 25
45 46 45 45 45 43 42 41 42 42 42 41 41 40 39 40 38 36 36 35 34 33 32 30 29 29 30 30 29 28 29 29 29 28 28 27 27 27 27 27 27 27 27 27
43 44 45 45 44 42 42 42 42 42 42 41 41 41 40 40 40 38 37 36 35 35 32 31 32 33 33 32 31 31 31 31 31 30 30 29 29 28 28 28 28 29 28 28
41 42 43 43 43 41 41 41 40 41 41 40 41 42 42 41 41 40 39 38 37 36 36 35 35 36 35 34 34 34 34 34 34 32 31 31 31 30 30 30 30 30 29 30

GEFSCGP_500_meanwind_162.txt.gz
Wind_Speed
15 14 14 13 12 11 9 7 6 4 4 4 5 6 8 9 11 12 14 16 17 17 17 17 17 16 14 12 11 9 8 6 5 5 5 4 4 2 1 1 2 2 3 3
17 17 16 15 14 13 11 9 7 6 6 5 5 6 7 8 10 11 13 15 16 17 17 16 15 15 13 12 11 10 9 7 5 5 4 4 4 3 2 2 3 3 3 4
20 18 17 16 15 14 12 11 10 9 8 7 6 6 7 9 10 10 12 13 15 16 16 16 14 14 13 11 11 10 9 7 6 5 4 4 3 3 3 3 3 4 5 5
22 21 19 17 16 16 15 14 13 12 10 9 8 8 8 9 9 10 11 12 14 15 16 15 14 13 13 11 10 9 8 7 5 5 5 4 4 3 3 4 4 4 5 6
24 23 21 19 18 17 17 16 15 14 13 12 11 10 8 8 9 9 10 11 13 15 15 14 13 13 13 11 10 9 8 6 5 5 5 5 4 4 4 4 4 5 6 8
25 24 23 21 20 18 18 18 17 16 15 14 12 11 9 9 9 9 10 11 12 13 14 14 13 12 12 11 10 9 8 7 6 6 5 5 5 5 5 5 5 6 7 8
26 25 24 23 22 20 20 19 19 18 16 15 13 12 11 10 10 9 11 11 11 12 13 14 13 12 11 11 10 9 9 8 7 6 5 6 6 5 5 5 6 6 6 7
28 26 26 25 24 23 21 20 20 20 18 16 15 13 11 10 9 10 10 11 11 12 13 13 13 12 12 11 10 9 9 8 7 6 6 6 6 6 6 5 5 6 7 8
29 27 27 26 25 25 23 22 20 21 20 18 17 15 13 11 10 10 11 10 10 12 13 13 13 12 11 11 11 10 9 8 7 7 7 6 7 6 6 5 5 6 7 8
30 29 28 28 28 27 25 23 22 21 21 20 18 15 14 12 11 11 10 10 10 11 12 12 12 12 12 12 11 10 9 8 8 8 7 7 7 7 6 6 7 7 8 8
32 31 29 29 29 28 26 25 24 23 23 21 19 17 14 13 12 11 10 10 10 11 11 12 12 12 12 12 12 10 9 9 9 8 8 8 7 7 7 8 8 8 8 9
32 32 32 31 31 30 28 26 25 24 23 22 21 18 15 15 13 12 11 11 11 11 11 11 12 12 12 12 12 11 10 9 9 9 9 8 8 8 8 9 9 9 10 10
33 34 33 33 33 32 30 28 26 25 24 23 22 19 17 16 15 13 13 12 12 12 11 11 11 12 13 12 12 11 10 10 10 9 9 9 9 9 9 10 10 10 11 11
35 35 34 33 32 32 31 29 27 27 26 24 22 20 18 17 17 15 15 14 13 12 11 12 12 13 13 12 12 12 11 11 10 10 10 10 10 10 10 10 11 12 12 12
36 36 35 33 33 33 32 31 29 28 27 26 24 22 19 18 18 17 16 14 13 13 12 13 13 13 14 13 12 12 12 12 12 11 11 11 11 11 12 12 12 12 13 13
36 36 35 34 33 34 34 33 32 30 28 27 26 24 21 20 19 18 17 16 15 14 14 14 15 15 15 14 13 13 13 13 13 13 12 13 13 13 13 13 13 13 14 13
37 36 35 35 33 34 35 34 33 32 30 29 28 26 24 23 21 20 19 19 18 17 17 17 17 16 16 15 15 15 15 14 15 14 14 14 14 14 14 14 14 14 14 15
37 37 36 35 34 35 34 34 34 34 33 32 30 29 26 24 24 23 22 21 19 19 19 19 19 18 17 17 16 17 16 16 17 16 15 16 15 14 15 15 15 16 15 16
40 39 38 37 36 36 34 34 34 34 34 33 32 30 28 26 25 25 23 22 21 21 21 21 21 20 19 19 19 19 19 19 19 17 16 17 16 15 16 16 16 16 17 18
43 42 41 40 39 39 37 36 35 35 35 33 33 32 31 30 28 26 25 25 24 24 23 24 23 22 22 21 21 21 21 21 21 20 18 18 17 17 17 18 18 18 18 19
44 44 43 42 41 41 40 39 38 38 37 35 35 34 34 33 32 30 29 28 28 27 27 26 26 26 25 24 24 24 24 23 22 22 20 19 20 20 20 20 20 20 20 20
46 46 45 44 44 44 42 41 40 40 39 38 37 36 36 36 35 33 32 31 31 30 29 29 29 29 28 28 28 27 27 27 26 25 24 23 23 23 23 23 23 23 23 23
48 49 48 46 46 45 44 43 42 41 41 40 39 38 37 37 37 36 36 35 35 33 32 31 32 32 31 31 30 30 30 30 29 28 28 27 26 26 26 27 27 26 26 26
49 50 50 48 47 46 45 43 42 41 41 41 40 39 39 38 38 37 37 37 36 35 35 34 34 33 33 33 32 33 33 33 32 32 31 30 30 29 29 29 29 29 28 28
48 48 49 49 49 47 46 45 43 42 41 41 40 39 39 38 38 38 38 38 38 37 38 37 37 36 36 36 35 35 35 35 35 35 34 33 33 32 31 31 31 31 31 30
45 45 46 46 47 47 46 45 44 42 41 41 41 40 40 40 40 39 39 39 39 39 40 39 38 38 38 38 37 37 37 37 36 36 35 34 33 33 33 32 32 32 32 31

GEFSCGP_500_meanwind_168.txt.gz
Wind_Speed
15 14 13 11 10 8 7 5 5 4 3 2 3 4 5 7 8 10 12 12 13 14 15 14 14 14 13 12 11 11 10 7 6 5 3 2 1 0 1 1 2 2 3 3
17 16 14 12 10 9 7 6 6 5 4 3 3 4 5 6 7 9 11 12 13 14 15 15 14 14 13 12 12 11 10 8 6 4 4 2 2 1 1 1 1 2 3 4
19 18 15 13 12 10 9 8 8 7 5 5 4 5 6 6 7 8 10 11 12 14 14 14 14 14 13 12 11 11 10 8 6 5 4 3 3 2 2 2 2 3 4 4
22 20 18 16 14 12 12 10 9 8 7 7 5 5 8 7 7 8 9 11 12 13 13 14 14 13 13 13 11 11 10 8 7 6 5 3 3 3 3 3 3 3 4 4
23 22 20 19 17 15 14 12 11 10 9 9 8 6 8 9 8 7 8 10 11 12 13 14 14 13 12 12 11 10 10 9 7 6 5 4 3 3 4 4 4 4 4 5
24 23 22 21 19 17 15 14 13 12 10 10 10 8 7 9 8 7 8 10 11 11 12 13 13 12 12 12 11 10 10 9 8 6 5 4 4 4 5 5 5 5 5 5
25 24 24 22 21 20 18 15 13 12 11 12 11 9 9 8 8 8 9 10 10 11 12 13 13 12 12 11 10 10 10 9 8 7 5 5 5 5 6 6 6 6 6 6
27 26 25 24 23 22 20 18 15 13 12 12 13 11 10 9 9 9 10 10 10 11 11 12 12 11 11 11 10 10 10 9 8 8 6 6 6 6 6 7 7 7 7 7
28 27 26 25 25 24 23 21 18 17 15 13 13 13 11 11 11 10 10 10 10 10 10 11 12 11 11 10 10 10 9 9 8 8 7 7 7 6 7 7 8 8 7 8
30 28 28 26 26 26 25 23 21 18 17 15 14 13 12 12 11 11 11 10 10 10 11 11 11 10 10 10 10 10 9 9 9 8 8 8 7 7 7 7 7 7 7 8
30 30 29 29 28 27 26 25 23 20 19 16 13 13 14 13 12 12 11 10 10 10 11 11 10 10 10 10 9 9 9 9 9 9 9 8 8 8 8 8 8 8 9 9
31 31 30 31 30 29 28 26 24 23 22 19 16 14 16 14 13 13 13 11 11 10 10 11 10 10 10 10 10 9 9 9 9 9 9 9 9 9 9 9 10 10 10 10
32 32 31 30 31 31 30 28 27 25 24 22 18 15 17 14 14 14 14 13 12 12 12 11 11 10 10 10 10 10 10 10 10 10 9 9 10 10 10 11 11 11 11 11
33 33 32 28 26 29 30 29 28 27 25 23 21 18 18 16 15 15 15 14 14 13 12 12 11 11 11 11 11 11 11 10 11 11 10 10 11 11 11 12 13 13 12 12
34 34 33 32 31 30 29 29 29 28 26 24 22 20 18 18 17 16 16 15 15 14 13 13 12 12 12 12 12 12 12 12 12 13 13 13 12 13 13 13 13 13 13 13
35 35 34 33 33 32 31 30 30 29 28 27 25 23 21 20 18 18 17 16 16 16 15 15 14 14 14 14 14 14 13 14 14 15 14 14 14 15 15 15 15 15 15 15
36 35 34 33 33 34 34 32 31 30 30 28 27 25 24 22 21 20 20 19 18 17 17 16 17 17 17 17 17 16 16 16 16 16 16 16 16 17 16 16 17 16 16 16
37 36 35 33 33 35 33 33 32 31 31 30 29 28 26 25 23 22 21 20 20 20 19 18 19 19 20 19 18 18 18 18 18 18 18 18 18 19 18 18 18 19 18 18
38 37 36 35 34 34 35 34 32 32 32 31 30 29 28 27 26 25 24 22 22 22 22 22 22 22 22 22 20 20 19 19 20 19 19 20 20 20 20 20 20 19 19 20
39 38 38 37 35 34 35 34 32 32 33 32 31 30 29 28 28 28 26 25 25 24 24 25 25 25 25 25 24 23 22 22 22 22 22 22 22 22 22 22 22 22 22 22
40 40 39 38 37 36 36 35 33 33 33 32 31 31 30 30 30 30 29 28 28 27 27 27 28 28 28 28 27 25 25 25 25 25 25 25 24 24 24 24 24 24 25 24
40 40 40 39 37 38 38 36 36 35 34 33 32 32 31 31 31 31 31 30 30 30 30 30 30 30 31 31 30 29 29 28 28 28 29 28 27 27 27 26 26 26 27 27
41 41 41 41 41 41 40 38 37 36 35 35 34 34 33 33 33 33 33 32 32 32 32 32 33 33 33 32 32 32 32 32 31 31 30 30 30 29 29 29 29 29 29 30
41 42 42 41 41 41 40 39 38 37 37 36 36 36 36 35 35 35 35 35 35 34 34 34 34 34 34 34 34 34 35 34 33 33 32 32 32 32 32 32 31 32 32 31
40 41 42 43 42 41 41 41 40 39 38 38 37 37 37 37 36 36 36 36 36 36 35 36 36 35 36 36 36 35 35 35 35 34 35 35 35 35 34 34 34 34 34 34
39 39 41 42 42 43 43 42 41 41 40 39 39 39 38 38 38 37 36 36 36 36 36 37 37 37 37 37 36 35 35 37 37 37 37 37 37 37 37 36 36 36 36 34

GEFSCGP_500_meanwind_174.txt.gz
Wind_Speed
16 13 11 9 9 9 8 6 5 6 7 5 6 7 10 11 12 13 14 15 16 17 18 19 18 18 17 16 16 15 12 11 11 10 8 9 7 5 4 3 2 2 2 2
16 14 13 12 12 11 9 7 6 7 7 6 7 7 7 10 12 13 13 14 15 16 17 18 19 18 18 17 16 15 13 12 11 10 9 8 7 5 4 4 3 2 2 3
17 13 15 15 13 12 10 10 9 9 8 7 8 10 8 9 11 13 14 14 14 16 16 17 18 18 18 17 16 15 13 12 11 10 9 8 7 6 5 5 4 4 3 3
19 17 18 17 16 13 11 11 11 10 9 7 7 13 11 9 10 13 14 15 15 15 16 16 17 17 17 16 15 14 13 12 11 10 9 8 7 6 6 5 5 5 4 4
19 19 20 19 16 15 14 13 12 10 9 9 8 11 11 8 9 11 12 14 14 15 15 15 16 16 16 15 15 14 13 12 12 11 9 8 8 7 6 6 6 6 5 5
21 19 20 19 17 17 16 13 11 9 9 12 9 10 12 9 9 11 12 14 14 13 14 14 15 15 15 15 14 14 13 12 11 11 10 9 8 7 7 7 7 7 6 6
22 21 21 20 19 18 16 13 10 10 11 13 10 11 14 12 12 13 13 14 14 13 12 13 13 14 14 14 14 14 13 12 12 11 10 9 9 7 7 8 7 7 7 6
20 20 20 21 20 18 17 15 14 12 11 12 10 10 13 15 16 14 13 13 13 12 12 12 13 13 14 14 13 13 13 13 12 11 10 10 9 8 8 8 8 8 8 8
17 18 19 21 21 20 19 18 16 15 15 15 12 10 15 18 17 14 13 13 13 12 12 11 12 12 13 13 13 13 13 13 13 11 11 10 10 9 9 9 9 9 9 9
23 20 18 20 23 23 22 20 17 18 18 16 14 14 15 17 17 16 15 14 14 13 12 11 11 12 12 12 12 13 13 13 13 12 11 11 10 10 10 10 10 10 10 10
27 26 21 20 23 22 22 23 22 20 19 17 17 15 14 17 17 16 15 15 15 13 12 12 12 12 12 12 12 12 12 12 13 13 12 11 11 11 11 11 10 11 11 11
29 29 27 24 22 22 22 22 22 23 22 21 18 18 15 15 16 16 15 15 16 14 13 14 13 13 12 12 12 12 12 12 12 13 13 12 12 12 12 11 11 12 12 12
32 32 31 27 23 22 24 24 24 23 22 21 19 21 20 18 18 18 18 18 17 16 16 16 14 12 13 12 12 12 13 13 13 13 13 13 13 13 12 12 12 13 13 13
34 35 33 29 24 21 23 24 24 25 24 23 22 21 20 19 19 19 19 19 18 17 17 18 15 14 14 13 14 13 13 14 15 14 15 15 15 14 14 14 14 14 14 14
35 36 36 34 29 24 22 21 22 24 26 26 23 22 24 24 21 21 21 20 20 19 19 19 16 16 15 15 15 15 16 16 16 16 16 16 16 16 16 15 16 16 16 16
36 37 36 36 34 30 28 25 24 24 25 25 25 25 27 26 25 25 22 22 22 21 21 19 18 18 17 17 17 16 17 17 17 18 17 17 17 18 18 17 17 18 18 18
35 36 37 36 33 33 33 30 28 27 27 26 27 28 28 28 30 30 27 24 24 23 22 21 20 19 18 18 18 18 18 18 18 18 19 19 18 19 19 19 19 19 19 19
35 35 36 36 34 36 35 30 28 28 29 29 28 29 30 31 32 32 29 27 26 25 24 23 23 22 22 21 21 21 21 20 21 21 21 21 21 21 21 21 21 21 21 20
36 36 37 37 36 36 34 32 30 29 31 29 30 31 33 34 34 33 31 28 27 27 27 26 25 25 24 24 23 23 23 23 23 23 24 23 23 23 23 23 23 23 23 23
36 37 37 37 37 36 34 31 29 30 33 33 33 33 35 35 35 35 32 30 29 29 28 28 27 27 27 27 27 26 26 27 26 26 27 27 26 25 25 25 25 24 24 24
34 36 38 38 38 36 34 33 32 34 35 34 34 35 36 36 35 35 33 31 30 29 29 29 29 29 29 29 30 30 29 29 29 30 30 29 28 27 27 26 25 25 26 26
33 34 36 37 37 38 38 36 35 37 37 36 36 36 36 36 36 36 34 33 33 32 31 31 31 31 31 32 32 32 32 32 32 32 32 31 30 29 28 28 28 28 27 28
34 34 35 36 38 39 40 40 40 40 38 37 37 37 37 36 37 37 35 35 35 34 33 33 33 34 34 34 34 35 35 35 34 34 34 33 32 31 31 30 30 30 31 31
36 38 38 39 39 40 40 41 41 41 40 39 38 38 38 38 37 36 36 36 36 35 34 34 35 35 35 35 35 35 36 36 36 35 35 34 34 33 33 34 34 33 33 33
38 39 40 41 42 43 41 41 42 40 40 42 42 41 40 40 40 39 38 38 38 37 36 36 36 37 37 36 37 37 37 37 37 37 37 37 36 36 36 36 36 35 35 35
38 39 41 43 43 43 43 43 45 44 42 42 42 42 42 41 41 40 40 39 39 39 38 38 38 39 38 38 38 39 39 39 38 38 38 38 38 38 38 38 36 36 37 37